Wetbulb
69.19 66.53 64.77 59.87 49.80 46.21 41.45 41.89 42.42 42.76 41.42 42.10 43.77 43.81 43.06 43.77 45.24 40.60 50.35 53.89 54.40 55.04 56.77 59.32 61.66 61.57 60.24 60.18 59.68 60.77 60.33 59.31 60.38 60.72 62.15 61.69 60.88 61.99 61.84 61.90 62.12 61.48 60.92 61.04 61.00 61.07 60.69 60.72 60.39
64.53 65.94 59.13 52.99 45.08 40.19 40.98 42.46 41.82 41.92 43.36 43.38 43.09 42.33 42.00 41.57 47.99 48.03 50.67 54.62 54.39 55.47 56.46 57.17 61.92 60.51 60.53 59.31 59.90 59.70 59.54 59.54 59.94 59.75 61.22 61.20 60.78 61.28 61.04 60.59 61.36 61.06 60.45 60.41 60.15 60.08 60.16 60.24 59.69
64.81 60.96 52.93 47.23 42.17 40.48 41.06 42.15 41.38 42.53 43.74 42.54 40.58 41.93 42.28 42.71 48.05 49.80 51.01 54.08 54.34 54.59 55.91 57.32 61.56 60.81 60.57 59.17 59.59 59.02 58.55 58.81 58.47 59.53 60.41 59.94 60.35 60.07 60.28 60.00 60.96 60.12 59.85 59.88 60.00 59.79 59.55 59.46 59.27
58.72 55.99 51.01 44.28 40.89 42.78 43.22 42.33 43.17 42.26 41.70 43.45 41.57 39.39 41.96 47.12 49.72 51.06 51.88 53.01 53.45 53.66 54.94 58.93 61.23 60.65 60.03 60.05 58.58 58.37 58.01 58.06 57.55 58.91 59.24 59.72 59.88 59.70 60.16 60.16 59.95 59.48 59.29 58.60 59.04 58.96 58.82 58.58 58.91
56.33 51.60 44.12 41.56 41.13 42.41 42.13 44.42 43.39 41.54 41.83 41.06 40.73 38.47 40.91 47.29 48.28 49.16 51.53 53.35 52.68 53.06 54.35 56.41 61.12 60.82 60.20 60.20 58.56 58.01 57.67 56.66 56.74 57.86 58.64 58.62 59.37 58.96 58.90 59.10 59.02 58.60 58.38 58.37 57.49 58.97 59.35 58.44 58.04
52.33 49.22 42.53 39.72 40.87 43.41 43.16 43.82 43.77 42.42 41.18 40.64 40.67 39.29 41.57 44.28 47.07 48.96 51.52 51.66 53.16 53.33 54.41 55.64 60.43 60.58 60.03 59.74 58.34 57.85 56.86 55.70 55.66 56.66 57.55 57.40 57.06 56.40 57.44 57.48 57.54 57.46 57.60 57.89 58.11 58.11 58.10 57.80 57.24
49.66 46.02 42.19 40.30 40.81 41.67 43.97 44.17 41.29 41.81 41.27 41.76 43.59 38.60 39.35 42.79 46.40 49.70 50.55 51.29 52.41 52.97 53.47 53.37 54.06 57.29 59.96 59.45 58.21 57.45 56.12 54.73 54.32 55.71 55.41 55.89 55.74 55.02 54.79 56.25 56.03 56.25 56.78 57.30 56.90 56.40 56.74 56.87 56.26
49.22 45.24 40.40 39.88 40.53 40.87 43.65 44.39 44.51 43.17 41.53 44.44 43.82 39.04 38.23 44.56 45.56 49.31 49.64 49.75 49.71 51.29 52.27 51.67 51.62 52.75 52.43 52.93 58.06 56.62 55.54 53.43 53.44 54.48 54.12 54.38 54.16 54.88 53.94 54.03 54.74 55.86 56.72 56.71 55.68 56.04 54.92 54.45 55.04
50.68 42.57 39.17 40.96 41.73 42.75 44.16 43.39 44.04 44.36 42.47 42.02 42.24 41.04 40.81 45.15 44.80 47.07 45.70 46.90 47.37 50.42 49.76 49.99 49.99 50.09 50.58 51.38 53.85 55.00 54.15 53.31 52.73 51.94 52.76 48.39 44.26 43.73 44.97 51.88 53.90 55.07 54.48 55.27 55.24 54.82 53.55 51.47 51.82
45.95 41.45 42.31 45.25 44.62 42.74 44.81 43.82 43.95 41.84 39.68 39.77 40.31 40.93 43.33 41.92 42.45 44.85 44.68 46.05 46.23 47.56 48.37 48.72 48.24 48.26 48.58 52.30 49.58 46.84 46.65 44.80 43.96 42.43 40.44 40.06 40.86 40.39 46.67 49.85 53.43 52.26 52.96 52.15 52.51 52.47 51.12 45.70 38.83
43.24 41.94 44.71 45.48 45.70 46.62 45.11 43.26 44.41 42.05 39.35 42.35 41.59 41.46 42.69 39.84 39.15 42.95 44.56 46.18 47.41 47.24 47.51 48.16 47.61 46.76 46.90 48.35 47.24 45.84 43.92 42.81 42.33 41.43 40.13 39.92 40.50 39.24 40.73 40.91 40.25 39.73 46.66 40.22 41.72 40.37 39.83 39.12 38.88
40.15 42.79 44.42 45.53 44.86 44.14 43.62 44.09 41.30 42.33 43.66 44.01 44.50 42.62 42.25 40.44 39.98 41.07 42.25 42.90 44.48 45.25 46.94 47.40 47.32 45.67 45.45 46.57 46.74 45.38 43.77 41.31 40.65 40.65 40.39 38.96 38.83 37.96 38.17 38.54 38.30 38.61 38.80 38.23 38.19 38.42 38.87 39.15 39.69
39.51 40.51 43.42 43.62 43.09 42.22 43.47 41.68 41.98 41.75 44.67 42.47 43.17 43.08 42.49 43.35 41.71 40.30 41.08 41.41 41.17 42.48 44.53 44.87 46.21 44.18 44.61 44.61 44.60 43.08 42.75 42.80 40.45 39.95 40.43 39.69 38.58 38.36 37.72 37.96 37.93 37.84 38.15 37.76 38.02 38.22 38.68 38.72 39.05
40.51 41.48 40.93 42.26 41.87 42.21 40.63 39.53 40.11 40.74 41.39 41.79 42.35 41.61 41.16 42.14 41.56 38.02 39.00 39.85 38.68 40.35 41.64 41.97 43.04 43.50 42.30 43.72 43.01 41.85 40.67 41.05 40.40 39.64 39.99 40.35 38.91 38.27 38.04 37.57 37.85 37.57 37.77 37.93 37.81 37.99 38.00 38.15 38.15
41.38 38.09 39.73 39.26 40.57 40.29 41.09 36.95 39.73 40.80 40.01 40.56 40.34 39.21 40.06 40.55 40.13 40.31 41.48 39.68 39.19 39.07 40.78 40.40 40.52 41.58 40.40 42.17 42.47 41.39 40.36 40.85 39.74 39.74 39.93 39.90 39.31 38.28 38.33 37.53 37.25 37.80 37.78 38.36 37.99 37.98 37.96 38.02 38.86
38.34 36.78 34.42 38.31 40.23 39.69 38.55 34.69 37.59 38.62 38.62 39.97 39.04 37.66 39.03 40.50 40.73 39.67 40.91 40.44 39.35 38.99 38.78 40.12 43.82 41.33 39.80 39.91 41.12 40.31 40.05 39.52 39.25 38.97 39.22 40.16 40.36 38.63 37.52 37.15 37.17 37.96 37.98 37.73 37.43 37.00 37.33 36.85 36.52
35.25 31.61 32.17 36.25 40.27 39.17 36.87 35.56 38.47 38.35 38.72 39.68 38.19 37.94 38.38 39.01 40.38 40.81 41.15 40.97 40.65 39.89 39.30 39.28 40.05 40.61 40.69 39.48 39.49 39.35 39.75 38.64 38.91 38.40 38.36 39.40 40.36 40.12 37.58 37.58 37.85 37.89 37.76 37.19 37.39 37.34 36.29 35.95 36.35
32.60 31.43 31.94 30.92 36.47 37.12 35.31 36.77 38.84 39.44 39.03 39.40 38.55 37.75 37.48 38.42 41.21 42.30 42.24 41.84 41.63 40.48 39.52 39.78 40.10 40.30 39.75 39.23 38.05 38.11 38.31 38.58 38.22 38.31 38.54 39.55 39.74 39.75 38.00 37.61 37.75 37.87 37.30 36.80 36.47 36.06 36.15 36.03 35.88
33.59 32.17 30.73 34.06 36.97 34.82 33.11 34.69 37.71 38.47 35.30 36.78 37.52 37.41 37.72 38.39 40.15 41.53 42.18 42.25 41.07 40.15 39.06 38.84 39.15 39.53 38.63 37.38 36.87 36.77 37.69 38.01 38.23 38.63 39.43 39.55 39.64 39.96 38.35 37.65 37.47 37.37 37.06 36.93 36.58 36.18 35.50 35.48 35.39
34.57 32.40 31.81 35.17 36.75 35.83 33.76 35.87 37.38 36.84 37.34 37.48 38.05 37.83 37.94 37.77 38.43 39.61 40.82 40.51 40.76 41.89 39.95 38.87 40.06 39.97 40.40 40.47 38.05 38.66 37.77 38.60 39.26 40.07 39.92 40.11 39.67 39.82 39.28 37.95 37.79 37.38 36.86 36.35 36.07 35.84 35.24 35.34 35.48
32.87 31.50 31.42 31.84 35.83 33.71 33.40 35.50 35.36 37.15 36.83 38.00 38.28 37.91 37.64 38.63 39.29 39.77 39.76 40.03 39.23 39.40 39.73 40.07 40.71 40.98 41.09 40.89 38.60 37.73 38.10 37.82 37.65 38.16 38.96 40.81 40.67 40.43 40.05 38.76 38.45 37.69 36.83 36.80 36.34 35.88 35.50 34.99 35.15
30.78 35.88 35.60 34.61 32.15 30.41 31.80 30.47 33.71 35.79 37.68 37.55 37.66 37.29 37.94 38.63 38.38 38.94 40.37 39.63 39.60 41.29 39.97 39.79 39.77 40.58 40.81 39.71 40.09 38.89 41.44 40.25 40.36 39.47 39.63 40.38 40.30 40.55 40.76 40.33 38.98 38.36 37.94 37.01 37.14 37.71 36.11 35.47 34.69
33.79 36.77 34.20 34.69 31.43 29.67 30.89 30.48 34.81 33.93 38.57 39.56 39.02 38.82 38.99 39.03 39.08 40.45 40.24 40.85 41.30 41.13 39.78 38.87 38.71 39.53 40.59 40.22 41.69 40.52 40.22 41.84 41.10 38.26 38.54 38.83 39.38 40.00 40.49 40.38 39.36 38.87 38.31 38.38 37.44 37.08 35.82 36.25 35.57
38.26 35.69 35.66 33.79 32.82 29.91 30.55 29.87 33.03 35.45 36.77 40.10 41.11 38.66 39.33 39.29 39.25 40.50 40.96 40.71 40.51 40.32 39.98 38.98 38.45 39.28 39.31 39.76 39.93 40.20 40.41 40.74 38.03 37.76 38.04 39.06 38.90 39.73 39.69 40.34 40.27 40.03 39.18 38.56 38.48 38.20 36.78 36.97 36.25
35.84 32.32 29.49 31.10 29.51 30.26 30.85 30.18 35.09 36.63 38.74 39.39 38.46 40.23 40.35 39.18 39.57 40.57 40.66 41.46 41.09 40.30 40.06 39.47 38.89 40.06 38.65 39.03 39.31 40.08 40.66 40.22 40.14 40.09 39.84 39.64 39.21 38.03 40.43 39.70 39.59 39.97 39.95 39.92 39.32 37.96 37.95 37.18 36.94
32.73 33.02 30.10 28.27 26.85 28.87 31.08 29.98 36.74 37.96 38.26 40.04 40.05 39.96 40.18 40.12 40.66 40.69 41.37 41.56 41.29 41.40 40.74 40.22 39.93 40.13 39.71 38.48 39.61 39.71 39.95 40.43 40.62 40.94 40.66 40.40 40.98 41.16 40.84 40.28 40.65 40.20 40.30 39.76 38.91 38.93 38.69 38.10 37.82
32.60 31.77 32.74 30.22 28.36 27.48 30.19 34.92 39.65 38.87 38.03 38.51 39.98 39.79 40.81 41.23 41.66 41.73 41.98 41.91 41.99 41.71 41.78 41.08 40.79 40.90 40.76 39.97 39.19 38.87 39.32 39.33 40.58 40.60 40.45 41.26 41.00 41.56 39.80 40.33 40.10 40.21 40.01 39.76 38.94 39.00 38.31 38.76 37.88
33.05 36.13 31.83 30.57 28.14 27.25 28.76 30.16 34.91 36.51 38.54 38.71 39.35 40.81 41.01 41.23 42.32 42.69 42.62 42.59 42.66 42.54 42.51 41.85 41.57 41.69 41.97 41.17 40.13 40.37 39.23 39.79 40.45 40.00 39.48 40.04 41.00 39.66 40.12 39.48 39.88 39.72 39.68 39.47 38.66 38.63 38.72 38.03 38.65
32.02 30.46 31.35 31.76 29.80 28.09 27.87 33.50 37.42 38.79 39.38 39.22 39.68 40.72 41.15 41.22 42.54 42.75 42.61 42.52 42.56 42.35 42.51 42.96 42.75 42.82 42.88 42.51 41.59 40.49 39.94 39.40 39.15 39.53 40.02 40.28 40.00 39.41 39.69 40.12 39.88 39.74 39.49 39.27 38.59 38.89 39.20 37.95 38.51
31.82 32.46 32.89 30.48 28.73 25.99 25.99 32.75 38.09 38.69 39.20 39.36 39.86 40.86 40.62 41.98 42.92 42.70 42.49 42.42 42.64 42.75 42.53 42.64 42.45 41.99 42.17 41.90 41.73 41.76 41.50 40.35 39.05 38.98 39.57 39.97 39.38 39.50 40.12 40.06 40.14 40.26 40.21 39.84 38.97 38.61 40.05 38.28 38.10
MSLP
1015.19 1015.15 1015.27 1015.83 1017.81 1019.31 1020.46 1020.95 1021.17 1021.49 1021.93 1022.43 1022.67 1023.03 1023.67 1024.32 1024.75 1025.71 1025.19 1025.21 1025.03 1025.04 1025.08 1024.99 1025.13 1025.29 1025.53 1025.79 1025.73 1025.70 1025.97 1026.09 1025.96 1025.80 1025.40 1025.51 1025.67 1025.63 1025.48 1025.40 1025.24 1025.27 1025.13 1024.96 1024.72 1024.52 1024.48 1024.16 1024.09
1015.37 1015.25 1015.86 1017.12 1018.82 1020.30 1020.97 1020.96 1021.32 1021.79 1022.33 1022.70 1023.11 1023.63 1024.02 1024.71 1024.99 1025.38 1025.49 1025.15 1025.13 1025.19 1025.30 1025.24 1025.21 1025.55 1025.69 1026.04 1025.95 1026.16 1026.27 1026.28 1026.24 1026.12 1025.89 1025.92 1025.95 1025.88 1025.81 1025.69 1025.60 1025.49 1025.38 1025.24 1025.15 1024.97 1024.83 1024.58 1024.43
1015.38 1015.61 1016.95 1018.44 1019.99 1020.67 1020.89 1021.09 1021.51 1022.05 1022.46 1022.76 1023.44 1023.93 1024.35 1024.70 1025.03 1025.30 1025.05 1025.10 1025.32 1025.42 1025.41 1025.46 1025.50 1025.69 1025.83 1026.11 1026.19 1026.34 1026.52 1026.52 1026.59 1026.41 1026.32 1026.32 1026.26 1026.21 1026.08 1026.02 1025.87 1025.87 1025.77 1025.74 1025.57 1025.39 1025.22 1025.05 1024.77
1015.71 1016.44 1018.22 1019.12 1020.37 1020.64 1020.86 1021.14 1021.44 1022.11 1022.59 1022.77 1023.36 1024.17 1024.53 1024.61 1024.86 1025.01 1024.91 1025.22 1025.52 1025.67 1025.64 1025.59 1025.68 1025.85 1026.08 1026.12 1026.41 1026.59 1026.75 1026.85 1026.88 1026.69 1026.69 1026.63 1026.63 1026.60 1026.48 1026.33 1026.39 1026.34 1026.22 1026.23 1026.01 1025.74 1025.52 1025.37 1025.24
1016.50 1017.68 1019.18 1020.22 1020.63 1020.69 1020.81 1021.01 1021.43 1021.95 1022.42 1022.88 1023.36 1024.15 1024.55 1024.66 1024.79 1024.94 1025.18 1025.38 1025.75 1025.97 1025.91 1025.77 1025.83 1025.97 1026.16 1026.27 1026.56 1026.76 1026.94 1027.10 1027.12 1026.99 1027.04 1027.05 1027.02 1027.09 1027.07 1026.93 1026.88 1026.81 1026.67 1026.42 1026.36 1025.84 1025.66 1025.72 1025.67
1017.55 1018.60 1020.17 1020.79 1020.76 1020.72 1020.78 1020.98 1021.35 1021.84 1022.30 1022.94 1023.52 1024.38 1024.76 1024.85 1025.14 1025.35 1025.39 1025.66 1025.79 1025.98 1026.04 1025.99 1025.87 1026.08 1026.26 1026.40 1026.74 1026.93 1027.15 1027.34 1027.39 1027.30 1027.28 1027.34 1027.41 1027.50 1027.47 1027.39 1027.23 1027.08 1026.86 1026.61 1026.45 1026.32 1026.15 1026.03 1026.07
1018.08 1019.41 1020.62 1020.79 1020.83 1020.70 1020.67 1020.91 1021.33 1021.73 1022.19 1022.58 1023.08 1024.27 1024.76 1025.02 1025.09 1025.42 1025.69 1025.82 1025.93 1026.06 1026.17 1026.25 1026.30 1026.26 1026.35 1026.52 1026.86 1027.07 1027.32 1027.50 1027.62 1027.62 1027.61 1027.58 1027.64 1027.65 1027.70 1027.63 1027.51 1027.28 1027.01 1026.80 1026.70 1026.68 1026.53 1026.32 1026.37
1018.41 1019.68 1020.80 1020.85 1020.94 1020.63 1020.62 1020.87 1020.94 1021.43 1022.03 1022.51 1022.95 1023.79 1024.27 1024.30 1025.04 1025.62 1025.95 1026.15 1026.26 1026.36 1026.34 1026.47 1026.56 1026.67 1026.83 1026.95 1027.02 1027.27 1027.47 1027.62 1027.68 1027.71 1027.75 1027.68 1027.91 1027.76 1027.71 1027.76 1027.59 1027.24 1027.12 1026.99 1026.92 1026.86 1026.84 1026.85 1026.66
1018.54 1019.99 1020.80 1020.67 1020.70 1020.40 1020.59 1020.79 1021.05 1021.31 1021.94 1022.50 1022.81 1023.23 1023.74 1024.25 1025.05 1025.96 1026.47 1026.65 1026.72 1026.73 1026.62 1026.70 1026.85 1026.97 1027.23 1027.35 1027.34 1027.32 1027.54 1027.72 1027.79 1027.95 1027.97 1028.23 1028.25 1028.23 1028.19 1027.91 1027.65 1027.40 1027.48 1027.37 1027.27 1027.23 1027.28 1027.43 1027.37
1019.01 1020.18 1020.14 1019.98 1020.04 1020.11 1020.34 1020.62 1020.97 1021.53 1022.06 1022.45 1022.78 1023.32 1023.99 1024.52 1025.25 1025.97 1026.32 1026.60 1026.80 1026.78 1026.67 1026.84 1027.02 1027.23 1027.43 1027.34 1027.52 1027.77 1027.96 1028.16 1028.33 1028.39 1028.44 1028.48 1028.46 1028.44 1028.25 1028.17 1027.90 1027.91 1027.73 1027.78 1027.78 1027.70 1027.77 1027.90 1028.01
1019.15 1019.69 1019.81 1019.85 1019.83 1019.88 1020.19 1020.57 1020.94 1021.44 1021.85 1021.81 1022.30 1022.99 1024.12 1024.84 1025.51 1025.77 1025.99 1026.13 1026.23 1026.44 1026.57 1026.78 1027.07 1027.33 1027.48 1027.43 1027.74 1028.11 1028.21 1028.38 1028.29 1028.25 1028.46 1028.64 1028.72 1028.82 1028.85 1028.89 1028.83 1028.71 1028.39 1028.43 1028.24 1028.16 1028.08 1028.06 1028.09
1019.17 1019.49 1019.65 1019.73 1019.79 1019.97 1020.27 1020.53 1020.90 1021.24 1020.88 1020.96 1021.49 1022.42 1023.78 1024.65 1025.06 1025.17 1025.62 1025.88 1026.19 1026.40 1026.41 1026.60 1026.93 1027.26 1027.36 1027.51 1027.74 1028.01 1028.30 1028.27 1028.31 1028.43 1028.51 1028.70 1028.84 1028.92 1028.96 1029.04 1028.95 1028.90 1028.82 1028.73 1028.64 1028.56 1028.35 1028.15 1028.05
1019.16 1019.47 1019.61 1019.72 1019.89 1020.03 1020.24 1020.51 1020.91 1020.82 1020.64 1021.20 1021.82 1022.65 1023.55 1024.23 1024.60 1024.91 1025.33 1025.67 1026.10 1026.32 1026.19 1026.43 1026.72 1027.05 1027.15 1027.51 1027.62 1027.95 1028.03 1028.05 1028.17 1028.29 1028.32 1028.44 1028.70 1028.76 1028.84 1028.84 1028.84 1028.83 1028.79 1028.76 1028.70 1028.62 1028.50 1028.40 1028.30
1019.33 1019.49 1019.68 1019.81 1019.99 1020.15 1020.46 1020.63 1020.95 1020.37 1020.63 1021.37 1022.16 1022.77 1023.51 1023.86 1024.03 1024.86 1025.12 1025.26 1025.63 1025.79 1025.80 1026.01 1026.43 1026.64 1026.91 1027.12 1027.36 1027.56 1027.77 1027.76 1027.99 1028.02 1028.03 1028.20 1028.49 1028.61 1028.65 1028.69 1028.74 1028.83 1028.83 1028.83 1028.84 1028.78 1028.67 1028.58 1028.42
1019.51 1019.78 1019.83 1019.89 1020.09 1020.32 1020.51 1020.82 1020.58 1020.34 1021.00 1021.70 1022.37 1022.90 1023.56 1023.77 1024.28 1024.23 1024.23 1024.64 1024.83 1025.00 1025.22 1025.50 1025.87 1026.18 1026.55 1026.68 1026.90 1027.24 1027.39 1027.43 1027.70 1027.73 1027.80 1027.98 1028.18 1028.25 1028.39 1028.49 1028.67 1028.69 1028.67 1028.70 1028.71 1028.61 1028.53 1028.51 1028.31
1020.20 1020.41 1020.47 1020.09 1020.28 1020.57 1020.79 1020.58 1020.10 1020.53 1021.21 1021.87 1022.53 1023.10 1023.44 1023.64 1023.67 1023.87 1023.97 1024.03 1024.27 1024.59 1024.76 1024.81 1024.95 1025.53 1026.01 1026.26 1026.45 1026.76 1026.97 1027.15 1027.26 1027.45 1027.58 1027.68 1027.81 1028.01 1028.23 1028.38 1028.48 1028.37 1028.45 1028.43 1028.44 1028.47 1028.41 1028.38 1028.42
1021.10 1021.03 1020.84 1020.39 1020.47 1020.68 1021.09 1020.91 1020.30 1020.75 1021.35 1021.90 1022.35 1022.94 1023.21 1023.33 1023.27 1023.11 1023.16 1023.35 1023.55 1023.75 1024.06 1024.41 1024.75 1025.04 1025.34 1025.79 1026.13 1026.47 1026.66 1026.89 1026.82 1026.98 1027.15 1027.26 1027.40 1027.45 1027.83 1028.09 1028.07 1028.10 1028.23 1028.26 1028.35 1028.36 1028.56 1028.58 1028.40
1021.41 1021.27 1021.03 1020.97 1020.94 1021.01 1021.30 1020.90 1020.51 1020.56 1021.03 1021.39 1021.89 1022.38 1022.75 1022.73 1021.89 1022.00 1022.32 1022.62 1022.85 1023.14 1023.51 1023.90 1024.27 1024.62 1025.03 1025.59 1026.12 1026.41 1026.59 1026.59 1026.59 1026.55 1026.74 1026.82 1026.87 1027.01 1027.37 1027.63 1027.75 1027.94 1028.15 1028.34 1028.54 1028.78 1028.81 1028.74 1028.52
1021.19 1021.39 1021.49 1021.12 1021.20 1021.31 1021.20 1021.01 1020.09 1019.89 1020.37 1020.94 1021.34 1021.63 1021.85 1021.71 1021.07 1021.33 1021.53 1021.92 1022.49 1022.87 1023.28 1023.56 1024.02 1024.18 1024.97 1025.60 1026.06 1026.31 1026.13 1026.11 1026.14 1026.02 1026.00 1026.18 1026.31 1026.56 1026.86 1027.10 1027.30 1027.50 1027.81 1027.90 1028.23 1028.45 1028.49 1028.53 1028.53
1021.14 1021.44 1021.61 1021.39 1021.39 1021.54 1021.15 1020.43 1019.47 1019.28 1019.37 1019.71 1020.17 1020.58 1020.84 1020.94 1020.74 1020.77 1021.04 1021.35 1021.63 1021.88 1022.27 1022.80 1023.08 1023.50 1024.01 1024.48 1024.79 1025.07 1025.21 1025.39 1025.18 1025.10 1025.30 1025.48 1025.71 1025.90 1026.18 1026.52 1026.76 1026.91 1027.34 1027.65 1027.84 1028.07 1028.43 1028.57 1028.45
1021.29 1021.56 1021.73 1021.95 1021.61 1021.56 1021.39 1020.34 1019.19 1018.47 1018.50 1018.63 1019.00 1019.42 1019.79 1020.07 1020.08 1020.08 1020.32 1020.57 1021.00 1021.34 1021.55 1021.95 1022.23 1022.65 1023.14 1023.59 1024.24 1024.74 1024.95 1025.15 1025.03 1024.78 1024.72 1024.45 1024.77 1025.06 1025.40 1025.65 1025.98 1026.24 1026.72 1026.88 1026.99 1027.43 1028.13 1028.42 1028.30
1021.48 1021.57 1021.83 1022.03 1022.16 1021.92 1021.49 1021.03 1019.14 1018.41 1017.98 1017.84 1018.14 1018.54 1018.85 1019.08 1019.24 1019.48 1019.53 1019.95 1020.26 1020.09 1020.78 1021.17 1021.51 1021.96 1022.41 1022.97 1023.60 1023.84 1024.01 1024.14 1023.49 1023.48 1023.57 1023.65 1024.01 1024.23 1024.46 1024.73 1025.06 1025.35 1025.73 1026.07 1026.21 1026.65 1027.11 1027.49 1027.96
1021.58 1021.75 1022.09 1022.31 1022.43 1022.24 1021.63 1021.07 1018.75 1018.19 1017.64 1017.30 1017.36 1017.68 1018.04 1018.27 1018.61 1018.87 1018.98 1019.16 1019.39 1019.80 1020.19 1020.55 1020.99 1021.35 1021.63 1022.08 1022.48 1022.93 1023.18 1022.88 1022.85 1023.04 1023.12 1023.23 1023.39 1023.43 1023.50 1023.68 1024.05 1024.44 1024.84 1025.01 1025.40 1025.76 1026.26 1026.61 1026.96
1021.68 1022.15 1022.52 1022.73 1022.68 1022.68 1021.68 1021.17 1019.00 1017.90 1017.12 1016.94 1016.96 1017.23 1017.50 1017.77 1018.09 1018.29 1018.42 1018.70 1018.88 1019.16 1019.51 1019.88 1020.32 1020.39 1020.75 1021.22 1021.66 1021.91 1022.07 1022.14 1022.62 1022.65 1022.74 1022.59 1022.64 1022.71 1022.83 1023.00 1023.17 1023.35 1023.70 1023.96 1024.22 1024.71 1025.29 1025.68 1026.06
1021.94 1022.51 1022.98 1023.31 1023.27 1022.67 1021.69 1021.03 1018.34 1017.02 1016.66 1016.60 1016.63 1016.88 1017.12 1017.36 1017.68 1017.96 1018.12 1018.24 1018.43 1018.68 1018.93 1019.29 1019.63 1019.45 1019.82 1020.33 1020.69 1020.80 1020.86 1021.36 1021.40 1021.48 1021.67 1021.87 1021.84 1021.79 1021.64 1021.91 1022.28 1022.37 1022.42 1022.71 1023.20 1023.82 1024.22 1024.55 1025.05
1022.21 1022.50 1022.81 1023.26 1023.68 1022.66 1021.70 1020.29 1017.35 1016.56 1016.39 1016.45 1016.38 1016.54 1016.82 1017.07 1017.33 1017.54 1017.66 1017.82 1017.96 1018.06 1018.25 1018.62 1018.93 1018.79 1019.10 1019.45 1019.44 1019.81 1020.14 1020.41 1020.46 1020.46 1020.53 1020.54 1020.47 1020.28 1020.31 1020.74 1020.98 1021.11 1021.34 1021.77 1022.31 1022.67 1022.96 1023.34 1023.62
1022.36 1022.69 1022.58 1023.02 1023.73 1023.05 1021.01 1019.23 1017.17 1016.59 1016.47 1016.40 1016.43 1016.46 1016.55 1016.86 1017.03 1017.23 1017.27 1017.41 1017.53 1017.58 1017.65 1017.85 1018.14 1018.14 1018.32 1018.47 1018.73 1018.88 1019.18 1019.42 1019.31 1019.23 1019.27 1019.30 1019.35 1019.38 1019.65 1019.87 1020.21 1020.39 1020.70 1021.01 1021.44 1021.78 1021.90 1022.07 1022.36
1022.17 1022.45 1022.95 1023.31 1023.75 1023.11 1021.23 1019.67 1017.64 1016.71 1016.47 1016.51 1016.56 1016.46 1016.55 1016.71 1016.86 1016.98 1017.00 1016.96 1017.00 1017.03 1017.19 1017.40 1017.60 1017.65 1017.60 1017.77 1017.97 1018.15 1018.15 1018.11 1018.09 1018.27 1018.29 1018.47 1018.54 1018.71 1019.03 1019.31 1019.40 1019.66 1019.94 1020.29 1020.66 1020.82 1020.81 1021.07 1021.14
1022.48 1022.76 1023.22 1023.42 1023.65 1022.98 1021.89 1018.68 1016.05 1015.80 1015.79 1016.18 1016.28 1016.40 1016.40 1016.64 1016.70 1016.83 1016.78 1016.78 1016.87 1016.80 1016.79 1016.89 1017.06 1017.19 1017.15 1017.03 1017.07 1017.16 1017.11 1017.25 1017.41 1017.56 1017.55 1017.59 1017.79 1017.99 1018.29 1018.42 1018.64 1018.84 1019.05 1019.24 1019.51 1019.64 1019.67 1019.91 1020.17
1021.64 1021.98 1022.42 1023.29 1024.01 1023.56 1021.97 1017.62 1015.54 1015.58 1015.66 1015.93 1016.19 1016.15 1016.22 1016.29 1016.43 1016.64 1016.59 1016.66 1016.60 1016.45 1016.46 1016.52 1016.54 1016.60 1016.54 1016.41 1016.43 1016.45 1016.54 1016.78 1017.04 1017.00 1016.83 1017.00 1017.07 1017.29 1017.45 1017.59 1017.67 1017.76 1018.03 1018.24 1018.56 1018.73 1018.74 1019.01 1019.22
Wind_Speed
6 4 3 5 6 6 1 1 0 1 2 3 2 4 4 3 2 3 4 4 4 5 2 4 6 6 3 5 3 6 7 6 8 8 11 11 11 11 12 13 14 13 14 13 15 15 15 16 16
4 1 5 3 7 4 4 1 2 0 4 6 4 2 5 1 1 1 4 5 5 5 3 5 6 5 4 4 3 6 6 5 8 6 9 11 10 12 12 12 13 13 15 14 14 14 14 15 15
2 4 5 5 3 2 2 2 4 2 6 0 3 4 3 2 0 7 5 8 5 5 4 3 7 7 5 3 5 4 5 5 5 6 9 9 11 11 12 12 13 13 13 13 13 14 14 14 15
3 5 5 6 2 1 1 4 4 6 0 2 3 3 1 2 4 7 7 8 7 5 4 6 8 6 5 4 3 3 3 4 4 6 7 8 10 11 12 12 12 12 12 11 12 12 12 12 14
5 4 5 4 1 1 0 4 6 3 4 2 2 2 2 1 2 6 8 8 8 5 4 3 8 7 6 5 3 3 3 3 3 4 7 7 10 10 10 11 11 11 11 10 9 12 13 13 13
5 3 5 2 1 1 1 4 4 3 3 2 3 5 4 1 5 6 7 8 6 7 5 4 8 8 6 5 4 3 2 2 2 3 6 6 8 9 8 9 9 10 10 10 11 12 11 12 13
6 4 3 3 3 1 4 7 5 5 4 4 7 4 2 2 6 7 7 6 6 5 5 2 1 4 7 5 4 3 2 2 1 2 4 4 7 8 8 8 8 9 9 9 10 11 12 12 12
5 5 3 1 3 3 4 4 3 6 4 3 5 3 3 5 9 7 5 4 4 4 5 4 2 3 3 3 4 2 1 1 1 1 3 4 8 9 8 8 8 8 9 9 8 10 11 11 11
3 6 2 5 5 2 4 3 1 2 5 2 4 4 1 8 10 7 3 1 1 3 4 3 4 3 2 2 1 2 2 2 2 4 4 6 3 4 5 7 8 8 8 8 8 9 10 9 10
6 4 7 4 3 2 4 4 6 3 2 4 3 2 5 8 9 10 8 9 6 6 6 5 4 4 3 2 2 1 2 2 2 2 2 3 2 2 3 5 7 7 7 8 8 8 9 7 3
2 3 3 1 1 2 4 1 4 6 4 9 8 6 9 6 8 10 9 8 11 6 4 6 6 4 5 4 2 1 1 0 1 2 1 1 1 2 2 3 3 4 6 4 5 5 3 4 3
3 2 2 1 1 2 3 4 2 7 7 2 9 7 8 10 13 13 11 9 7 7 8 6 7 6 6 3 3 3 2 2 3 3 3 2 1 1 1 1 2 2 2 3 3 2 3 4 4
3 1 1 1 1 1 1 4 5 8 9 2 6 8 11 12 11 7 6 6 6 8 8 8 7 7 6 6 4 3 4 4 4 3 4 3 3 3 2 2 2 2 2 1 3 3 3 3 4
1 1 1 1 0 0 1 2 2 3 2 5 7 9 9 11 13 5 6 8 9 8 9 8 8 8 6 7 6 5 4 5 4 4 5 5 3 3 3 3 3 2 1 2 2 3 3 3 3
2 3 4 1 0 1 2 4 8 4 3 6 7 7 7 9 6 12 11 10 10 9 8 9 9 8 8 8 7 5 5 5 5 5 6 6 5 5 4 3 2 3 2 2 2 3 2 3 3
4 5 4 1 2 1 3 8 4 1 5 8 8 7 7 9 10 8 8 9 8 7 10 8 8 9 9 8 6 5 5 5 5 4 4 6 6 6 4 3 4 3 2 2 1 1 3 2 2
7 1 2 7 2 1 2 7 4 1 4 8 8 8 8 8 9 11 10 10 9 11 9 9 9 9 10 7 5 5 6 5 5 4 5 6 7 7 5 4 4 3 3 2 2 1 1 2 4
3 2 3 4 4 1 3 13 9 8 8 10 8 8 8 9 17 9 10 10 9 9 9 8 7 8 7 3 2 2 3 4 4 5 5 7 6 7 6 5 5 4 3 3 2 1 1 3 3
2 1 2 4 1 3 3 8 13 7 4 8 9 9 10 12 6 8 8 9 8 8 8 9 8 9 5 3 3 2 5 4 4 5 7 7 7 7 6 5 5 5 5 5 4 2 2 2 0
1 1 4 5 1 1 5 11 6 4 4 6 9 9 11 7 7 8 8 8 9 11 11 9 11 9 9 5 3 4 3 4 3 4 6 8 8 8 7 7 6 7 4 5 5 4 2 1 2
1 2 1 3 6 0 6 8 6 3 3 3 6 6 6 10 10 9 9 10 7 10 11 11 12 10 9 9 3 2 1 1 2 4 4 9 10 9 9 8 7 7 5 5 6 6 6 4 2
2 2 1 2 4 2 3 3 5 4 8 3 5 5 8 8 6 7 8 7 9 13 7 9 8 10 9 9 7 9 9 8 6 5 4 5 8 10 10 10 9 8 6 7 6 6 5 5 5
3 2 1 1 2 2 2 4 8 4 3 3 5 6 5 6 6 8 9 8 6 6 8 7 8 8 9 10 12 9 11 9 5 3 6 6 6 9 9 10 9 9 7 8 8 6 7 6 4
4 3 4 3 2 3 1 4 7 4 4 2 3 5 5 5 4 6 6 6 6 5 7 7 9 10 9 11 12 13 14 12 5 6 7 6 5 6 9 9 10 10 9 10 9 9 8 8 6
4 5 3 3 4 6 2 2 10 4 5 5 3 6 6 5 4 5 6 6 5 6 8 7 8 12 9 11 11 15 16 12 13 11 8 8 6 5 11 10 10 9 11 10 9 9 9 9 8
5 6 6 4 4 4 2 6 6 6 3 6 4 5 5 4 4 5 6 6 7 7 7 8 8 11 8 9 13 10 11 8 9 11 9 8 9 9 8 9 10 11 10 10 9 7 8 9 9
3 3 3 7 3 3 3 8 9 5 5 4 7 3 4 5 5 6 7 6 7 7 8 8 8 9 8 9 7 9 9 10 11 12 9 9 9 8 7 9 9 10 10 10 9 8 10 9 10
2 4 4 3 4 5 5 6 7 6 9 7 7 7 5 5 6 5 5 6 5 6 5 5 7 9 8 8 7 7 9 11 11 8 10 10 9 7 7 8 9 8 9 9 9 8 8 10 9
2 1 4 4 3 5 1 8 8 10 10 11 10 8 7 6 6 5 5 5 4 4 4 5 6 7 8 7 6 8 8 8 7 8 8 9 7 7 8 9 8 9 9 9 10 11 11 12 12
3 6 6 6 5 1 4 10 3 7 8 8 9 9 6 6 7 6 6 4 4 3 3 4 5 5 6 6 5 7 6 6 7 8 8 6 8 6 9 8 9 9 9 9 11 12 12 13 12
Wind_Direction
344 342 61 39 52 63 71 334 152 41 48 330 22 79 127 56 130 200 305 189 165 151 193 142 173 108 115 87 35 42 42 55 31 37 32 42 47 43 46 40 44 47 44 41 38 38 46 43 49
335 14 42 77 78 53 289 269 100 15 145 139 85 67 41 86 131 103 102 223 180 147 128 122 159 134 117 117 50 56 60 22 52 32 44 53 40 45 45 44 41 45 46 42 42 43 47 40 52
151 43 76 83 101 145 214 179 135 79 151 87 96 53 151 169 120 171 234 158 155 141 141 184 140 169 139 168 80 77 70 43 51 18 46 48 50 49 49 49 46 46 48 44 44 49 46 40 51
52 14 36 77 77 277 255 156 133 122 101 86 127 68 309 200 168 195 156 149 142 156 159 211 167 152 153 160 119 92 79 54 47 21 51 40 55 47 46 47 52 50 51 49 43 46 49 52 54
37 57 60 70 8 312 290 157 145 134 142 133 165 184 253 56 32 145 143 146 149 166 185 190 174 169 178 133 132 117 85 61 45 22 60 41 48 49 43 49 50 51 46 51 52 45 49 54 54
44 89 66 159 220 2 176 155 143 136 140 150 82 141 234 343 133 173 147 156 159 161 172 188 185 179 183 161 151 134 108 76 47 32 61 55 48 41 37 41 46 45 43 42 47 45 50 53 55
106 78 136 138 171 303 198 154 159 165 161 237 146 139 263 220 198 160 161 152 162 169 158 163 294 192 190 178 163 158 124 60 43 28 48 49 38 34 34 29 35 25 38 44 50 52 42 49 59
100 91 102 136 176 256 171 168 126 152 213 88 154 207 240 209 154 132 131 149 166 182 177 174 155 83 62 43 171 173 137 56 64 84 37 17 30 17 11 18 351 24 27 33 41 41 44 37 51
105 65 146 188 152 238 154 149 191 75 114 236 194 173 296 127 124 113 110 144 201 228 208 188 168 151 119 96 238 198 208 198 110 36 341 25 7 351 351 340 352 8 17 20 23 41 41 51 35
77 97 203 182 189 206 189 181 175 143 152 243 243 148 98 129 150 162 178 192 198 209 214 202 196 185 170 199 118 100 63 76 64 42 0 348 323 294 278 323 339 355 15 16 24 30 38 45 35
135 140 178 188 171 174 177 211 159 146 237 225 210 178 154 154 172 182 198 193 201 202 201 195 202 198 193 208 168 147 159 154 243 240 238 292 6 326 339 341 346 351 359 3 15 11 19 19 23
84 82 143 174 69 116 175 127 234 191 227 217 223 151 159 169 190 195 200 200 181 196 205 203 199 194 213 209 193 193 193 213 236 235 230 213 254 279 265 277 299 323 330 336 356 357 343 2 356
72 184 114 143 122 204 123 239 234 246 248 71 116 150 175 188 204 212 203 199 186 207 212 211 191 202 208 208 206 203 217 222 227 229 227 199 218 229 224 244 253 276 300 320 333 339 346 346 344
147 132 335 224 204 242 217 273 21 276 112 150 164 195 188 193 201 168 197 207 198 207 214 207 203 204 194 209 204 211 207 227 222 229 226 217 211 224 228 250 255 275 250 298 316 323 331 328 332
76 1 339 232 11 346 114 278 236 254 140 197 216 218 211 221 182 211 212 212 199 211 205 206 204 196 199 207 207 206 212 210 221 224 228 225 211 222 228 242 259 252 250 301 330 324 324 326 327
51 50 15 297 146 17 86 278 258 118 158 229 235 237 234 232 223 227 217 219 206 207 209 208 201 192 201 207 206 206 208 216 223 219 219 221 221 216 220 232 243 246 236 238 264 288 306 297 307
11 248 313 332 198 43 104 271 277 107 197 254 240 240 239 253 247 231 219 216 207 208 210 214 202 200 203 207 207 209 218 221 225 218 214 220 217 214 207 219 241 232 232 236 235 266 172 311 310
264 342 319 271 330 316 275 272 279 259 216 235 245 245 242 243 244 228 219 216 213 210 212 216 203 209 197 174 170 237 239 241 232 226 216 217 217 213 205 219 231 210 222 249 253 256 309 249 277
116 99 276 277 346 303 260 278 286 301 224 246 246 240 241 238 258 227 226 213 209 213 212 208 198 208 157 150 172 224 227 211 227 221 221 212 216 213 208 210 212 206 208 216 205 212 228 299 9
60 341 286 285 341 14 342 296 282 282 264 213 230 243 242 254 260 240 232 218 208 214 211 204 210 192 196 190 189 176 179 214 221 208 216 215 211 209 210 204 211 205 202 217 211 183 190 247 199
235 201 251 243 330 5 324 310 336 294 324 255 257 247 251 238 250 250 229 223 209 221 211 210 209 203 200 192 135 112 58 305 263 227 233 221 209 211 209 203 206 208 191 208 202 184 179 215 247
266 174 124 336 36 233 21 258 299 311 314 290 307 281 267 258 249 247 239 234 215 227 201 207 200 199 198 174 195 197 219 226 220 209 211 217 202 215 212 211 206 208 200 207 209 193 188 159 212
191 95 111 87 89 32 331 80 266 352 336 304 311 308 305 279 244 259 246 244 246 218 205 204 200 204 197 188 203 206 226 236 242 219 228 224 213 216 214 210 208 211 205 215 200 187 191 194 179
139 95 51 63 76 21 333 117 283 211 201 274 301 315 314 324 298 265 261 256 256 223 204 195 201 221 200 195 201 208 222 228 224 229 233 236 219 218 220 215 214 215 209 208 209 208 200 202 205
82 62 354 11 9 217 345 45 240 237 226 211 266 313 328 320 315 295 285 272 271 234 223 215 209 236 204 203 207 213 224 222 230 233 231 231 230 217 227 209 212 215 218 213 203 198 208 200 205
182 156 158 206 199 252 290 234 245 210 230 236 256 270 287 323 308 287 272 263 262 256 237 223 220 247 210 203 222 218 222 223 230 233 227 230 229 228 216 206 214 218 213 210 202 207 211 202 211
186 192 178 102 11 27 243 289 298 223 254 228 246 275 303 321 311 287 282 259 258 252 242 227 229 247 236 221 218 219 213 216 228 230 221 229 229 229 214 208 210 215 213 208 200 211 214 209 212
176 168 79 11 169 244 281 273 237 209 217 225 236 233 264 285 310 306 289 275 263 257 260 247 240 246 255 238 221 228 218 219 228 226 226 223 232 216 214 207 211 210 211 208 201 212 216 208 215
135 238 53 120 131 164 243 263 211 207 194 196 216 222 231 263 274 285 288 288 292 284 269 266 260 262 269 248 230 226 231 225 223 227 233 227 225 209 211 213 210 213 211 207 205 217 216 212 221
185 197 159 125 212 132 148 273 227 223 211 194 208 216 224 226 238 244 255 275 282 286 297 293 297 292 275 276 255 246 246 231 231 233 232 220 226 212 217 209 213 215 214 209 211 220 222 218 221